Regional Weather Roundup
Issued by NWS Grand Forks, ND

Home | Current Version | Previous Version | Text Only | Print | Product List | Glossary On
Versions: 1 2 3 4 5 6 7 8 9 10 11 12 13 14 15 16 17 18 19 20 21 22 23 24 25 26 27 28 29 30 31 32 33 34 35 36 37 38 39 40 41 42 43 44 45 46 47 48 49 50
000
ASUS43 KFGF 310731
RWRFGF
PRAIRIE TO PINES  WEATHER ROUNDUP
NATIONAL WEATHER SERVICE EASTERN NORTH DAKOTA/GRAND FORKS ND
200 AM CDT SUN JUL 31 2016

 **SATELLITE DATA USED TO AUGMENT SKY COVER AT AUTOMATED STATIONS**
 *****  WEATHER ACROSS EASTERN NORTH DAKOTA  *****

CITY           SKY/WX    TMP DP  RH WIND       PRES   REMARKS
GRAND FORKS    CLEAR     65  58  78 S9        29.88S
GRAND FRKS AFB CLEAR     65  58  76 S9        29.88S
DEVILS LAKE    PTCLDY    68  61  78 SE14      29.85S
FARGO          CLEAR     68  57  68 SE12      29.90S
WAHPETON ARPT  SUNNY     61  55  82 SE7       29.92S
$$

 ***** WEATHER ACROSS CENTRAL AND WESTERN NORTH DAKOTA  *****

CITY           SKY/WX    TMP DP  RH WIND       PRES   REMARKS
BISMARCK       MOCLDY    71  63  75 S7        29.80F
MINOT          CLEAR     67  63  87 E7        29.77F
JAMESTOWN      CLEAR     65  61  87 SE12      29.86S
MINOT AFB      CLEAR     63  61  94 SE7       29.76F
GARRISON         N/A     67  64  90 SE8       29.78F
WILLISTON      CLOUDY    74  60  61 E6        29.72F
DICKINSON      CLEAR     65  59  81 S6        29.76F
HETTINGER      PTCLDY    70  61  73 S10       29.81R
$$

 *****  OTHER AIRPORT OBSERVATIONS IN OUR AREA  *****

CITY           SKY/WX    TMP DP  RH WIND       PRES   REMARKS
WALHALLA       FAIR      68  64  88 S13G21    29.84F
GRAFTON AIRPOR FAIR      64  61  88 S8        29.89R
VALLEY CITY AR FAIR      64  63  94 S10       29.90F
CANDO          FAIR      66  64  94 S12G17    29.86S
CAVALIER APRT  FAIR      66  59  77 S9        29.85F
GWINNER        FAIR      63  61  94 SE7       29.89F
SHEYENNE NWR     N/A     64  58  80 S7        29.95S
ROLLA          FAIR      64  63  94 S8        29.85R
 ***** THE ABOVE OBSERVATIONS ARE NON NWS ARE NOT QUALITY
       CONTROLLED AND MAY MIS-REPORT RAIN FOR SNOW...
$$

  *****  WEATHER ACROSS NORTHERN MINNESOTA  *****

CITY           SKY/WX    TMP DP  RH WIND       PRES   REMARKS
FLAG ISLAND    CLOUDY    72  64  78 S10       29.93S
WARROAD        CLOUDY    66  63  88 S6        29.94S
ROSEAU         PTCLDY    64  59  82 S7        29.92F
HALLOCK        CLEAR     64  61  88 S9        29.88R
THF RVR FALLS  CLEAR     60  58  92 SE9       29.93F
BAUDETTE       CLEAR     61  57  87 S6        29.96S
WASKISH        CLEAR     61  59  94 SE5       29.97S
CROOKSTON      CLEAR     61  59  94 SE9       29.91S
STEPHEN NDAWN    N/A    N/A N/A N/A SE5         N/A
GREENBUSH NDAW   N/A    N/A N/A N/A SE3         N/A
$$
  *****  WEATHER ACROSS CENTRAL AND WEST MINNESOTA  *****

CITY           SKY/WX    TMP DP  RH WIND       PRES   REMARKS
FOSSTON        CLEAR     61  55  82 SE6       29.95S
BEMIDJI        CLEAR     62  60  92 SE6       29.97S
PARK RAPIDS    CLEAR     65  61  87 SE8       29.97S
ELBOW LAKE     FAIR      63  58  83 E8        29.96S
WADENA         CLEAR     57  57 100 CALM      29.97S
DETROIT LAKES  CLEAR     64  61  88 SE6       29.96F
MOORHEAD       CLEAR     64  57  77 SE7       29.92F
FERGUS FALLS   CLEAR     66  57  72 SE8       29.95F
MORRIS MN      CLEAR     61  57  88 E7        29.94F
STAPLES        CLEAR     63  61  94 S3        29.98S
$$
  *****  WEATHER ELSEWHERE ACROSS MINNESOTA  *****

CITY           SKY/WX    TMP DP  RH WIND       PRES   REMARKS
DULUTH         MOCLDY    61  59  93 E8        30.04S
INTRNTL FALLS  CLEAR     59  57  93 SE3       29.99S
ELY            CLOUDY    61  55  82 CALM      30.04S
CLOQUET        MOCLDY    61  57  88 E5        30.03F FOG
WHEATON        CLEAR     61  59  94 SE7       29.94F
BRAINERD       CLEAR     64  62  93 SE3       29.99F
HIBBING        CLEAR     51  51 100 CALM      30.03S FOG
ALEXANDRIA     CLEAR     63  57  81 SE7       29.99S
SAINT CLOUD    CLEAR     65  64  97 E5        29.99R
MINNEAPOLIS    PTCLDY    69  63  81 SE6       29.99F
$$

  *****  WEATHER ACROSS SOUTH DAKOTA  *****

CITY           SKY/WX    TMP DP  RH WIND       PRES   REMARKS
SIOUX FALLS    CLEAR     68  61  78 S5        29.95S
BROOKINGS      PTCLDY    63  58  83 SE10      29.95S
WATERTOWN      CLOUDY    66  57  72 SE12      29.93F
HURON          MOCLDY    71  62  73 SE10      29.88F
SISSETON         N/A     59  58  96 SE6       29.90F
ABERDEEN       MOCLDY    68  61  78 SE10      29.86F
MITCHELL       CLOUDY    74  64  71 SE14      29.90S
PIERRE         CLOUDY    71  67  87 SE12      29.77F
MOBRIDGE       CLOUDY    71  65  81 E10G20    29.77F
RAPID CITY     CLOUDY    64  60  87 NW13      29.86F THUNDER
$$

  *****  SOME WEATHER IN NEARBY STATES *****

CITY           SKY/WX    TMP DP  RH WIND       PRES   REMARKS
GLASGOW MT     CLEAR     66  57  72 E10G17    29.65F
GREAT FALLS MT CLEAR     66  34  30 W5        29.76R
CHEYENNE WY    MOCLDY    65  58  78 SW5       30.05F
SCOTTSBLUFF NE PTCLDY    69  62  78 E12       29.87F
OMAHA NE       PTCLDY    73  64  73 SE8       29.95F
DES MOINES IA  CLOUDY    69  65  86 S6        29.99S
DAVENPORT IA   MOCLDY    68  65  90 E7        30.03S
CHICAGO IL     MOCLDY    67  64  90 NW7       30.00S
EAU CLAIRE WI  CLOUDY    67  59  75 SE8       30.03S
LA CROSSE WI   CLOUDY    67  62  84 E5        30.02F
$$

  *****  SOME NATIONAL WEATHER *****

CITY           SKY/WX    TMP DP  RH WIND       PRES   REMARKS
LA GUARDIA NY  CLOUDY    76  73  91 SE6       29.98F
RALEIGH NC     MOCLDY    77  71  82 SW8       29.97F
ATLANTA GA     PTCLDY    73  73 100 W6        30.03F
NEW ORLEANS LA PTCLDY    82  76  81 CALM      30.02F
OKLAHOMA CITY  CLEAR     76  71  85 SE7       29.94S
ALBUQUERQUE NM CLOUDY    70  54  56 SE12      30.16F
SALT LAKE CITY PTCLDY    81  52  36 S15       29.95S
LOS ANGELES CA PTCLDY    69  65  86 SW3       29.89R
BOISE ID       CLEAR     73  39  29 S3        29.79R
SEATTLE WA     PTCLDY    59  53  80 SW7       29.98R
$$

*** WEATHER ACROSS MANITOBA...SASKATCHEWAN AND ONTARIO ***
                ***ONTARIO***

CITY           SKY/WX    TMP DP  RH WIND       PRES   REMARKS
GERALDTON      PTCLDY    52  48  87 CALM      30.07S
THUNDER BAY    CLEAR     54  54 100 W2        30.05F
SIOUX LOOKOUT  CLEAR     57  55  94 SE5       29.98S
TORONTO        MOCLDY    72  57  60 E6        30.01F
BIG TROUT LK   MOCLDY    68  61  77 SW5       29.86F
PICKLE LAKE    NOT AVBL
DRYDEN         MOCLDY    66  61  82 S7        29.98S
KENORA         MOCLDY    66  61  82 S6        29.95F
$$
                *** MANITOBA***

CITY           SKY/WX    TMP DP  RH WIND       PRES   REMARKS
BRANDON        CLEAR     59  57  94 NE3       29.80F
DAUPHIN        CLEAR     64  61  88 SE3       29.76F
ISLAND LAKE    PTCLDY    66  63  88 CALM      29.83S
PILOT MOUND      N/A    N/A N/A N/A S10         N/A
THE PAS        CLEAR     68  64  88 SE6       29.71F
THOMPSON       CLOUDY    63  63 100 NE6       29.78F
WINNIPEG       MOCLDY    68  63  83 S14       29.86S
LYNN LAKE      CLOUDY    57  55  94 MISG      29.79F
CHURCHILL      CLOUDY    46  46 100 NE12      29.90F
GILLAM         FOG       55  55 100 E6        29.83S VSB 1/2
$$
                ***SASKATCHEWAN***

CITY           SKY/WX    TMP DP  RH WIND       PRES   REMARKS
ESTEVAN        CLEAR     66  61  82 SE9       29.73F
KINDERSLEY     LGT RAIN  61  59  94 SW8       29.75R
LLOYDMINSTER   CLOUDY    57  55  94 NW5       29.72S
PRINCE ALBERT  PTCLDY    61  61 100 E5        29.67R
REGINA         PTCLDY    64  59  82 SE14      29.71R
YORKTON        CLEAR     66  61  82 S7        29.74S
N. BATTLEFORD  NOT AVBL
LA RONGE       CLOUDY    61  59  94 E3        29.71F
SASKATOON      TSTM      66  63  88 S6        29.69R
SWIFT CURRENT  TSTM      63  61  94 NE18G25   29.70S
$$
NOTE: THESE ARE AUTOMATED STATIONS WITH LIMITED QUALITY CONTROL
      "FAIR" INDICATES FEW OR NO CLOUDS BELOW 12,000 FEET WITH NO
      SIGNIFICANT WEATHER AND/OR OBSTRUCTIONS TO VISIBILITY.
      SKY/WX - SKY CONDITION AND SIGNIFICANT WEATHER.
      TMP - AIR TEMPERATURE.    DP   - DEWPOINT TEMPERATURE.
      RH  - RELATIVE HUMIDITY.  PRES - PRESSURE.
      HX  - HEAT INDEX.         WCI  - WIND CHILL INDEX.
$




USA.gov is the U.S. government's official web portal to all federal, state and local government web resources and services.